Regional Weather Roundup
Issued by NWS Charleston, SC

Current Version | Previous Version | Graphics & Text | Print | Product List | Glossary On
Versions: 1 2 3 4 5 6 7 8 9 10 11 12 13 14 15 16 17 18 19 20 21 22 23 24 25 26 27 28 29 30 31 32 33 34 35 36 37 38 39 40 41 42 43 44 45 46 47 48 49 50
000
ASUS42 KCHS 052112
RWRCHS
NATIONAL WEATHER SERVICE CHARLESTON SC
500 PM EDT TUE MAY 05 2015

NOTE: "FAIR" INDICATES FEW OR NO CLOUDS BELOW 12,000 FEET WITH NO
SIGNIFICANT WEATHER AND/OR OBSTRUCTIONS TO VISIBILITY.

NOT ALL STATIONS ARE QUALITY CONTROLLED BY THE NATIONAL
WEATHER SERVICE. USE DATA WITH CAUTION...ESPECIALLY
DEWPOINT OBSERVATIONS.

SCZ027-030-031-034>040-042>050-052200-
...SOUTHEAST SOUTH CAROLINA...

CITY           SKY/WX    TMP DP  RH WIND       PRES   REMARKS
N CHARLESTON   MOSUNNY   78  56  46 E13G18    30.24F
WATERFRONT PRK   N/A     75 N/A N/A E14         N/A
MOUNT PLEASANT FAIR      77  59  53 MISG      30.25F
PINOPOLIS      NOT AVBL
MONCKS CORNER  FAIR      81  50  34 E7        30.24F
SUMMERVILLE    FAIR      81  54  39 CALM      30.25F
BEAUFORT MCAS  PTSUNNY   79  57  46 E9        30.23F
BEAUFORT ARPT  FAIR      77  61  57 E12       30.23F
HILTON HEAD IS SUNNY     75  61  60 E10G18    30.25F
WALTERBORO     PTCLDY    79  46  31 E9        30.24F
ALLENDALE      MOCLDY    81  52  36 E7        30.22F

...SOUTHERN MIDLANDS AND PEE DEE...

CITY           SKY/WX    TMP DP  RH WIND       PRES   REMARKS
GEORGETOWN     NOT AVBL
KINGSTREE      NOT AVBL
ORANGEBURG     PTSUNNY   78  50  37 SE6       30.24F
BARNWELL       FAIR      82  52  34 E9G18     30.23F
AIKEN          FAIR      79  46  31 E9        30.27F
MANNING        FAIR      79  45  29 S6        30.24F
COLUMBIA       MOSUNNY   82  52  35 SE12G18   30.23F
SUMTER         MOSUNNY   82  52  35 SE9       30.23F
FLORENCE       MOSUNNY   82  51  34 S12G17    30.24F
MYRTLE BEACH   SUNNY     73  55  53 SE14      30.30F
N MYRTLE BEACH PTSUNNY   74  56  53 E13       30.28F

$$

GAZ063-065-086>088-099>101-113>116-118-119-134>141-150-052200-
...SOUTHEAST GEORGIA...

CITY           SKY/WX    TMP DP  RH WIND       PRES   REMARKS
SAVANNAH ARPT  PTSUNNY   76  54  46 E8        30.23F
HUNTER AAF     SUNNY     78  58  50 E13G18    30.20F
FORT STEWART   SUNNY     78  58  50 E13G18    30.20F
STATESBORO       N/A     80  55  41 SE6       30.22F
SYLVANIA       PTCLDY    77  58  52 E7        30.23F
CLAXTON        FAIR      79  55  44 E12G17    30.22S

...CSRA...CENTRAL AND FAR SOUTHEAST GEORGIA...

CITY           SKY/WX    TMP DP  RH WIND       PRES   REMARKS
THOMSON        MOSUNNY   83  56  39 CALM      30.27F
AUGUSTA-BUSH   MOSUNNY   82  53  36 E7        30.22F
AUGUSTA-DANIEL MOSUNNY   82  49  31 E10       30.23F
SWAINSBORO     FAIR      82  30  15 E3        30.22F
VIDALIA        MOSUNNY   81  55  41 SE6       30.21F
EASTMAN        FAIR      80  54  40 E5        30.22F
HAZLEHURST     FAIR      80  56  43 E6        30.19F
ALMA           MOSUNNY   77  56  48 E8        30.19F
WAYCROSS       PTSUNNY   84  62  48 E15       30.19F
JESUP          MOCLDY    82  61  47 SE13      30.21F
BAXLEY         PTSUNNY   81  55  41 E10       30.19F
BRUNSWICK      MOSUNNY   77  59  53 NE14G22   30.21F
SAINT SIMONS   MOSUNNY   76  60  57 NE15      30.21F

$$

SCZ027-028-034-036>038-045-046-048>050-GAZ119-141-052200-
...LAKE AND SUPPLEMENTAL COASTAL OBSERVATIONS...

STATION/POSITION TIME  TEMP    WIND        PRES    WAVE   SWELL
                       AIR SEA DIR/SP/G            HT/PER HT/PER/DIR
                 (UTC) (F)     (DEG/KT/KT) (MB)    (FT/S) (FT/S/D)
UPR LAKE MARION  NOT AVBL
WINYAH BAY       NOT AVBL
LAKE MURRAY      2000   80     170/  1/  4 1023.7F
ACE BASIN NERRS  NOT AVBL
FORT PULASKI     2000   72 70   60/ 17/ 20 1024.9F
SAPELO ISLAND    2000   77      50/ 13     1024.0F

$$

ANZ835-935-AMZ111-154-330-350-352-354-370-450-454-472-052200-
...C-MAN AND BUOY OBSERVATIONS...

STATION/POSITION TIME  TEMP    WIND        PRES    WAVE   SWELL
                       AIR SEA DIR/SP/G            HT/PER HT/PER/DIR
                 (UTC) (F)     (DEG/KT/KT) (MB)    (FT/S) (FT/S/D)
BUOY 41004       2050   72 73   60/ 16/ 17 1024.0F   3/ 6   2/ 8
BUOY 41008       2050   71 71   50/ 17/ 21 1023.1F   5/ 6   2/130/ 9
FOLLY BEACH CMAN 2100   72      70/ 15/ 17 1024.5F
CAPERS NEARSHORE 2008   71      70/ 14/ 17 1025.4F
FRIPP NEARSHORE  2000   72      70/ 17/ 19 1023.8F


STATION/POSITION TIME  TEMP    WIND        PRES    WAVE   SWELL
                       AIR SEA DIR/SP/G            HT/PER HT/PER/DIR
                 (UTC) (F)     (DEG/KT/KT) (MB)    (FT/S) (FT/S/D)
5E ST. MARYS GA  2021      73                N/A     4/ 6
FRYING PAN BUOY  2050   73 72   90/  8/ 10 1026.3F   3/ 5   3/130/ 5
BUOY 41025       2050   73 77  150/ 14/ 19 1026.2F   3/ 8   2/ 60/ 8
CAPE LOOKOUT NC  2000   71     130/  7/  7 1026.1F
BUOY 41002       2050   70 70  100/ 16/ 19 1025.3F   5/ 7   2/ 60/ 9
BUOY 41010       2020   75 78   80/ 19/ 21 1019.5F
ST AUGUSTINE FL  2100   72 74   20/  9/ 10 1022.2F


$$


USA.gov is the U.S. government's official web portal to all federal, state and local government web resources and services.